Weather reports worldwide

Advertisment
A12-CPP, Netherlands (6205): temperature & dewpoint: 16.02.2020 08:00:00 - 22.02.2020 08:00:00 (CET)A12-CPP, Netherlands (6205): wind speed & gusts: 16.02.2020 08:00:00 - 22.02.2020 08:00:00 (CET)A12-CPP, Netherlands (6205): wind direction: 16.02.2020 08:00:00 - 22.02.2020 08:00:00 (CET)A12-CPP, Netherlands (6205): reduced air pressure: 16.02.2020 08:00:00 - 22.02.2020 08:00:00 (CET)A12-CPP, Netherlands (6205): visibility: 16.02.2020 08:00:00 - 22.02.2020 08:00:00 (CET)
Date & Time tt [°C] td [°C] ff [km/h] ff [kn] fx [km/h] fx [kn] dd ppp [hPa] vv [km]
22.02.2020 08:00:00 6,9 6,4 70 38 90 49 W 998,3 3,9
22.02.2020 07:00:00 8,7 7,2 85 46 94 51 SW 996,7 9
22.02.2020 06:00:00 9,2 6,8 89 48 97 53 SW 997,6 10
22.02.2020 05:00:00 9,0 6,7 85 46 94 51 SW 998,0 9
22.02.2020 04:00:00 8,8 6,5 87 47 94 51 SW 998,9 10
22.02.2020 03:00:00 8,7 6,3 83 45 90 49 SW 999,7 10
22.02.2020 02:00:00 8,7 6,3 72 39 94 51 SW 1001,2 11
22.02.2020 01:00:00 8,8 6,5 72 39 90 49 SW 1001,6 11
22.02.2020 00:00:00 8,7 6,4 81 44 83 45 SW 1003,4 10
21.02.2020 23:00:00 8,6 6,4 74 40 79 43 SW 1005,0 10
21.02.2020 22:00:00 8,5 6,3 78 42 83 45 SW 1005,5 10
21.02.2020 21:00:00 8,3 6,2 76 41 79 43 SW 1006,1 10
21.02.2020 20:00:00 8,2 6,1 76 41 83 45 SW 1006,8 9
21.02.2020 19:00:00 8,1 6,0 83 45 86 47 SW 1006,3 9
21.02.2020 18:00:00 7,9 5,8 83 45 86 47 SW 1006,4 9
21.02.2020 17:00:00 7,9 5,6 85 46 86 47 SW 1006,8 9
21.02.2020 16:00:00 7,5 5,5 76 41 79 43 SW 1008,0 8
21.02.2020 15:00:00 7,4 5,1 74 40 79 43 SW 1008,5 8
21.02.2020 14:00:00 7,4 4,8 76 41 83 45 SW 1008,9 10
21.02.2020 13:00:00 7,1 4,9 76 41 79 43 SW 1009,8 9
21.02.2020 12:00:00 6,7 4,6 76 41 83 45 SW 1010,2 9
21.02.2020 11:00:00 6,7 3,9 74 40 76 41 SW 1010,6 10
21.02.2020 10:00:00 6,9 4,0 76 41 76 41 WSW 1010,8 10
21.02.2020 09:00:00 6,9 3,9 67 36 68 37 WSW 1011,1 10
21.02.2020 08:00:00 6,9 3,6 61 33 65 35 WSW 1011,4 10
21.02.2020 07:00:00 7,0 3,2 63 34 65 35 W 1011,3 10
21.02.2020 06:00:00 6,9 3,2 61 33 65 35 W 1010,9 10
21.02.2020 05:00:00 6,8 3,0 61 33 65 35 W 1010,3 10
21.02.2020 04:00:00 6,7 2,6 63 34 65 35 W 1009,6 10
21.02.2020 03:00:00 6,7 2,2 63 34 68 37 W 1008,8 10
21.02.2020 02:00:00 6,5 2,2 67 36 68 37 W 1007,7 10
21.02.2020 01:00:00 6,4 1,7 65 35 72 39 W 1006,8 10
21.02.2020 00:00:00 6,4 1,5 63 34 68 37 W 1005,6 10
20.02.2020 23:00:00 6,3 1,2 67 36 72 39 W 1004,7 10
20.02.2020 22:00:00 6,5 1,0 67 36 72 39 WNW 1003,5 10
20.02.2020 21:00:00 6,4 0,9 68 37 68 37 WNW 1002,4 10
20.02.2020 20:00:00 6,5 0,8 68 37 72 39 NW 1000,8 10
20.02.2020 19:00:00 6,3 2,9 57 31 68 37 W 999,8 10
20.02.2020 18:00:00 6,1 3,7 44 24 43 23 NW 998,2 10
20.02.2020 17:00:00 5,8 3,2 55 30 61 33 NNW 996,5 10
20.02.2020 16:00:00 4,5 4,1 55 30 76 41 NW 995,6 7
20.02.2020 15:00:00 7,9 7,3 61 33 76 41 SW 994,2 5
20.02.2020 14:00:00 7,9 6,6 61 33 76 41 SSW 995,2 7
20.02.2020 13:00:00 8,1 6,4 61 33 68 37 SSW 996,6 10
20.02.2020 12:00:00 8,2 6,4 67 36 72 39 SW 998,1 10
20.02.2020 11:00:00 8,0 6,5 67 36 72 39 SW 998,5 10
20.02.2020 10:00:00 8,1 6,4 68 37 76 41 SW 999,4 10
20.02.2020 09:00:00 8,2 6,6 67 36 68 37 SW 999,8 10
20.02.2020 08:00:00 8,1 6,7 63 34 65 35 SW 1000,9 10
20.02.2020 07:00:00 8,0 6,9 65 35 65 35 SW 1001,2 10
20.02.2020 06:00:00 7,9 6,8 61 33 61 33 SW 1001,9 10
20.02.2020 05:00:00 7,7 6,9 59 32 61 33 SW 1002,4 3,8
20.02.2020 04:00:00 7,8 7,0 57 31 58 31 SW 1003,1 7
20.02.2020 03:00:00 7,6 7,0 50 27 54 29 SW 1004,0 9
20.02.2020 02:00:00 7,2 6,9 48 26 50 27 SW 1005,1 9
20.02.2020 01:00:00 7,1 6,6 40 21 47 25 SSW 1006,0 10
20.02.2020 00:00:00 6,8 6,3 44 24 47 25 S 1006,9 6
19.02.2020 23:00:00 6,3 5,9 46 25 54 29 S 1007,9 4,4
19.02.2020 22:00:00 5,8 5,5 42 23 50 27 S 1009,2 3,1
19.02.2020 21:00:00 6,3 3,7 48 26 50 27 SW 1010,2 10
19.02.2020 20:00:00 6,5 3,1 48 26 47 25 SW 1010,9 10
19.02.2020 19:00:00 6,5 3,0 41 22 40 21 WSW 1011,2 10
19.02.2020 18:00:00 6,5 2,2 39 21 43 23 W 1011,5 10
19.02.2020 17:00:00 6,4 2,3 41 22 43 23 W 1011,8 10
19.02.2020 16:00:00 6,3 2,5 39 21 43 23 W 1011,9 10
19.02.2020 15:00:00 6,4 2,4 44 24 47 25 W 1011,7 10
19.02.2020 14:00:00 6,6 2,4 50 27 50 27 W 1011,3 10
19.02.2020 13:00:00 6,6 3,1 50 27 68 37 WNW 1011,1 10
19.02.2020 12:00:00 6,7 2,6 55 30 54 29 WNW 1010,3 10
19.02.2020 11:00:00 6,8 3,2 55 30 54 29 WNW 1009,9 10
19.02.2020 10:00:00 6,8 3,4 52 28 58 31 WNW 1008,6 10
19.02.2020 09:00:00 6,7 3,8 52 28 58 31 NW 1007,7 10
19.02.2020 08:00:00 6,4 3,1 59 32 58 31 NW 1006,4 10
19.02.2020 07:00:00 5,6 3,2 32 18 54 29 WNW 1006,3 21
19.02.2020 06:00:00 5,2 2,4 57 31 58 31 WNW 1005,9 10
19.02.2020 05:00:00 6,1 2,5 44 24 58 31 WNW 1004,9 10
19.02.2020 04:00:00 4,8 1,8 57 31 61 33 WNW 1004,5 10
19.02.2020 03:00:00 5,7 1,3 43 23 58 31 WNW 1003,9 28
19.02.2020 02:00:00 5,2 1,2 54 29 61 33 W 1003,7 10
19.02.2020 01:00:00 6,3 1,5 54 29 58 31 WNW 1003,2 10
19.02.2020 00:00:00 6,2 2,4 41 22 58 31 W 1002,5 10
18.02.2020 23:00:00 6,9 3,3 46 25 47 25 W 1002,9 10
18.02.2020 22:00:00 6,7 4,4 46 25 47 25 W 1003,1 10
18.02.2020 21:00:00 6,7 3,8 50 27 47 25 WSW 1003,5 10
18.02.2020 20:00:00 6,2 4,1 39 21 65 35 WSW 1004,1 10
18.02.2020 19:00:00 6,1 3,4 65 35 65 35 WSW 1004,9 10
18.02.2020 18:00:00 7,2 4,7 57 31 58 31 SW 1005,2 10
18.02.2020 17:00:00 7,0 4,2 61 33 65 35 WSW 1005,9 10
18.02.2020 16:00:00 7,1 3,6 61 33 65 35 WSW 1006,4 10
18.02.2020 15:00:00 6,8 3,4 59 32 61 33 WSW 1007,0 10
18.02.2020 14:00:00 6,7 2,9 57 31 65 35 WSW 1007,7 10
18.02.2020 13:00:00 6,2 3,5 59 32 68 37 WSW 1007,8 9
18.02.2020 12:00:00 6,6 3,0 65 35 65 35 WSW 1007,9 -
18.02.2020 11:00:00 6,8 2,3 61 33 65 35 WSW 1007,9 10
18.02.2020 10:00:00 5,7 2,5 57 31 68 37 W 1007,6 -
18.02.2020 09:00:00 6,8 2,3 61 33 65 35 W 1007,4 10
18.02.2020 08:00:00 6,6 2,3 61 33 65 35 W 1007,0 -
18.02.2020 07:00:00 6,7 2,4 61 33 61 33 W 1006,5 -
18.02.2020 06:00:00 6,7 2,5 57 31 65 35 W 1006,0 -
18.02.2020 05:00:00 6,3 3,5 59 32 68 37 W 1004,8 -
18.02.2020 04:00:00 5,5 3,3 54 29 68 37 W 1004,3 -
18.02.2020 03:00:00 6,6 2,1 63 34 68 37 WSW 1004,4 -
18.02.2020 02:00:00 6,8 1,0 67 36 72 39 WSW 1003,9 -
18.02.2020 01:00:00 7,0 2,1 67 36 68 37 WSW 1003,6 -
18.02.2020 00:00:00 7,2 2,9 63 34 68 37 WSW 1003,0 -
17.02.2020 23:00:00 7,5 3,9 67 36 65 35 WSW 1002,4 -
17.02.2020 22:00:00 7,8 4,1 59 32 65 35 WSW 1001,9 -
17.02.2020 21:00:00 7,9 4,9 59 32 65 35 WSW 1001,8 -
17.02.2020 20:00:00 8,0 5,1 61 33 65 35 WSW 1001,0 -
17.02.2020 19:00:00 8,0 5,2 67 36 72 39 WSW 1000,4 -
17.02.2020 18:00:00 8,0 5,0 68 37 72 39 WSW 999,7 -
17.02.2020 17:00:00 7,7 4,9 58 31 68 37 WSW 998,9 -
17.02.2020 16:00:00 7,7 4,7 70 38 72 39 WSW 998,2 -
17.02.2020 15:00:00 7,5 4,8 65 35 72 39 WSW 997,6 -
17.02.2020 14:00:00 7,2 4,2 70 38 79 43 WSW 997,0 -
17.02.2020 13:00:00 7,2 3,5 78 42 83 45 WSW 995,9 -
17.02.2020 12:00:00 7,2 3,4 83 45 90 49 WSW 995,5 -
17.02.2020 11:00:00 7,3 2,9 72 39 94 51 WSW 994,2 -
17.02.2020 10:00:00 7,3 2,6 72 39 94 51 WSW 993,6 -
17.02.2020 09:00:00 7,3 2,8 76 41 101 54 WSW 992,8 -
17.02.2020 08:00:00 7,1 2,6 79 43 104 56 WSW 992,0 -
17.02.2020 07:00:00 7,3 2,2 76 41 104 56 WSW 991,6 -
17.02.2020 06:00:00 7,3 2,1 86 47 108 58 WSW 990,5 -
17.02.2020 05:00:00 7,2 2,0 79 43 101 54 WSW 990,2 -
17.02.2020 04:00:00 7,2 2,0 79 43 97 53 WSW 990,2 14
17.02.2020 03:00:00 7,2 2,5 76 41 97 53 WSW 989,6 14
17.02.2020 02:00:00 7,3 2,5 72 39 90 49 WSW 988,8 14
17.02.2020 01:00:00 7,3 2,8 76 41 90 49 WSW 987,8 14
17.02.2020 00:00:00 7,4 3,0 85 46 86 47 WSW 987,0 10
16.02.2020 23:00:00 7,5 3,0 87 47 101 54 WSW 986,3 10
16.02.2020 22:00:00 7,8 2,9 81 44 86 47 SW 985,7 10
16.02.2020 21:00:00 7,9 2,6 83 45 86 47 WSW 985,6 10
16.02.2020 20:00:00 7,7 4,2 72 39 76 41 SW 984,8 10
16.02.2020 19:00:00 7,3 3,6 74 40 79 43 SW 984,4 10
16.02.2020 18:00:00 7,9 4,1 67 36 72 39 SW 983,4 10
16.02.2020 17:00:00 8,2 4,3 68 37 76 41 SW 984,0 10
16.02.2020 16:00:00 8,0 4,7 59 32 61 33 SW 984,2 10
16.02.2020 15:00:00 7,7 4,8 54 29 61 33 SW 984,8 10
16.02.2020 14:00:00 8,2 4,5 65 35 72 39 SW 984,9 10
16.02.2020 13:00:00 8,5 4,5 67 36 72 39 SW 985,1 10
16.02.2020 12:00:00 8,6 5,5 70 38 83 45 SW 984,4 10
16.02.2020 11:00:00 8,8 6,6 72 39 83 45 SW 983,0 10
16.02.2020 10:00:00 9,3 5,6 74 40 94 51 SW 982,0 6
16.02.2020 09:00:00 9,0 7,0 65 35 76 41 SSW 982,0 10
16.02.2020 08:00:00 8,6 7,7 61 33 65 35 S 981,9 5

tt = temperature
td = dewpoint
ff = wind speed
fx = gusts
dd = wind direction
ppp = reduced air pressure
vv = visibility

Next stations